AUA212 EDDF-LOWW

Flight info

Callsign AUA212
Flight time N/A
Altitude 31000
Route CINDY8S/18 CINDY Z74 HAREM DCT ASLEP DCT TAKUT DCT DINKU L603 BESNI L605 MIQ DCT ALUTU DCT BIBAG DCT AKIMA DCT MASUR MASUR3W
Aircraft A320/M-SDE3FGHIRWY/LB1

Departure

Time 2026-05-07 19:18
Airport Frankfurt Main Airport (EDDF)

Arrival

Time N/A
Airport Vienna International Airport (LOWW)
Time Latitude Longitude Altitude Speed Heading
2026-05-07 18:36 50.04752 8.56883 365 ft 0 kts 294°
2026-05-07 18:58 50.04751 8.56888 351 ft 3 kts 294°
2026-05-07 18:59 50.04741 8.56926 364 ft 4 kts 294°
2026-05-07 18:59 50.04732 8.56956 362 ft 4 kts 280°
2026-05-07 18:59 50.04736 8.56989 361 ft 4 kts 219°
2026-05-07 18:59 50.04758 8.57009 365 ft 4 kts 204°
2026-05-07 19:00 50.04782 8.57026 359 ft 4 kts 205°
2026-05-07 19:00 50.04795 8.57035 358 ft 0 kts 205°
2026-05-07 19:04 50.04781 8.57025 359 ft 4 kts 205°
2026-05-07 19:04 50.04743 8.56998 358 ft 7 kts 204°
2026-05-07 19:04 50.04701 8.56968 356 ft 6 kts 204°
2026-05-07 19:04 50.04647 8.56929 363 ft 7 kts 205°
2026-05-07 19:05 50.04606 8.56910 356 ft 1 kts 192°
2026-05-07 19:05 50.04604 8.56910 356 ft 0 kts 193°
2026-05-07 19:06 50.04603 8.56910 356 ft 2 kts 193°
2026-05-07 19:07 50.04590 8.56905 356 ft 3 kts 193°
2026-05-07 19:07 50.04565 8.56896 362 ft 5 kts 193°
2026-05-07 19:07 50.04519 8.56879 359 ft 11 kts 193°
2026-05-07 19:07 50.04449 8.56854 362 ft 11 kts 190°
2026-05-07 19:08 50.04363 8.56833 360 ft 12 kts 190°
2026-05-07 19:08 50.04281 8.56807 359 ft 13 kts 191°
2026-05-07 19:08 50.04231 8.56711 359 ft 12 kts 249°
2026-05-07 19:08 50.04194 8.56558 361 ft 16 kts 249°
2026-05-07 19:09 50.04158 8.56410 361 ft 14 kts 249°
2026-05-07 19:09 50.04125 8.56269 361 ft 13 kts 250°
2026-05-07 19:09 50.04093 8.56138 358 ft 13 kts 250°
2026-05-07 19:09 50.04060 8.55999 356 ft 17 kts 249°
2026-05-07 19:10 50.04018 8.55825 358 ft 17 kts 250°
2026-05-07 19:10 50.03980 8.55663 354 ft 15 kts 250°
2026-05-07 19:10 50.03945 8.55515 356 ft 13 kts 249°
2026-05-07 19:10 50.03912 8.55377 351 ft 17 kts 249°
2026-05-07 19:11 50.03870 8.55205 352 ft 16 kts 250°
2026-05-07 19:11 50.03833 8.55046 356 ft 15 kts 250°
2026-05-07 19:11 50.03792 8.54877 355 ft 18 kts 250°
2026-05-07 19:11 50.03750 8.54700 354 ft 17 kts 250°
2026-05-07 19:12 50.03709 8.54528 344 ft 17 kts 250°
2026-05-07 19:12 50.03673 8.54377 348 ft 7 kts 250°
2026-05-07 19:12 50.03664 8.54340 350 ft 7 kts 249°
2026-05-07 19:12 50.03657 8.54313 349 ft 2 kts 249°
2026-05-07 19:13 50.03641 8.54247 345 ft 9 kts 250°
2026-05-07 19:13 50.03612 8.54124 347 ft 13 kts 250°
2026-05-07 19:13 50.03581 8.53997 337 ft 13 kts 250°
2026-05-07 19:13 50.03548 8.53856 336 ft 16 kts 250°
2026-05-07 19:14 50.03503 8.53667 337 ft 19 kts 250°
2026-05-07 19:14 50.03458 8.53479 335 ft 18 kts 249°
2026-05-07 19:14 50.03415 8.53301 335 ft 20 kts 249°
2026-05-07 19:14 50.03367 8.53102 335 ft 19 kts 250°
2026-05-07 19:15 50.03323 8.52918 334 ft 18 kts 249°
2026-05-07 19:15 50.03282 8.52747 331 ft 17 kts 249°
2026-05-07 19:15 50.03220 8.52619 333 ft 14 kts 212°
2026-05-07 19:15 50.03132 8.52596 335 ft 13 kts 179°
2026-05-07 19:16 50.03017 8.52597 334 ft 17 kts 180°
2026-05-07 19:16 50.02897 8.52598 331 ft 17 kts 179°
2026-05-07 19:16 50.02859 8.52599 333 ft 0 kts 180°
2026-05-07 19:17 50.02754 8.52600 335 ft 47 kts 179°
2026-05-07 19:17 50.02180 8.52605 332 ft 113 kts 180°
2026-05-07 19:17 50.01215 8.52615 330 ft 162 kts 180°
2026-05-07 19:17 50.00040 8.52629 792 ft 169 kts 177°
2026-05-07 19:18 49.98860 8.52647 1476 ft 171 kts 178°
2026-05-07 19:18 49.97630 8.52740 1916 ft 186 kts 166°
2026-05-07 19:18 49.96425 8.53694 2232 ft 208 kts 135°
2026-05-07 19:18 49.95568 8.55602 2703 ft 224 kts 116°
2026-05-07 19:19 49.94813 8.57760 3452 ft 231 kts 117°
2026-05-07 19:19 49.93999 8.60054 3877 ft 255 kts 117°
2026-05-07 19:19 49.93111 8.62537 4022 ft 266 kts 118°
2026-05-07 19:19 49.92207 8.65055 4033 ft 267 kts 118°
2026-05-07 19:20 49.91298 8.67573 4024 ft 267 kts 118°
2026-05-07 19:20 49.90391 8.70086 4023 ft 267 kts 118°
2026-05-07 19:20 49.89484 8.72598 4023 ft 267 kts 118°
2026-05-07 19:20 49.88575 8.75111 4023 ft 267 kts 118°
2026-05-07 19:21 49.87662 8.77636 4195 ft 273 kts 118°
2026-05-07 19:21 49.86735 8.80203 5159 ft 273 kts 118°
2026-05-07 19:21 49.85801 8.82783 6064 ft 276 kts 119°
2026-05-07 19:21 49.84855 8.85393 6917 ft 280 kts 120°
2026-05-07 19:22 49.83896 8.88046 7755 ft 284 kts 120°
2026-05-07 19:22 49.82922 8.90733 8592 ft 288 kts 120°
2026-05-07 19:22 49.81932 8.93453 9428 ft 292 kts 120°
2026-05-07 19:22 49.80929 8.96208 10224 ft 296 kts 120°
2026-05-07 19:23 49.79884 8.99072 10574 ft 317 kts 120°
2026-05-07 19:23 49.78776 9.02110 10829 ft 338 kts 120°
2026-05-07 19:23 49.77601 9.05333 11037 ft 346 kts 120°
2026-05-07 19:23 49.76471 9.08630 11068 ft 348 kts 114°
2026-05-07 19:24 49.75719 9.12183 11072 ft 349 kts 104°
2026-05-07 19:24 49.75103 9.15823 11207 ft 353 kts 109°
2026-05-07 19:24 49.74066 9.19299 12009 ft 354 kts 121°
2026-05-07 19:24 49.72635 9.22372 12779 ft 356 kts 131°
2026-05-07 19:25 49.71004 9.25268 13507 ft 359 kts 132°
2026-05-07 19:25 49.69353 9.28185 14171 ft 363 kts 132°
2026-05-07 19:25 49.67681 9.31130 14793 ft 366 kts 132°
2026-05-07 19:25 49.65994 9.34103 15409 ft 370 kts 132°
2026-05-07 19:26 49.64292 9.37107 16029 ft 374 kts 132°
2026-05-07 19:26 49.62663 9.40259 16628 ft 378 kts 123°
2026-05-07 19:26 49.61317 9.43708 17215 ft 382 kts 122°
2026-05-07 19:26 49.59917 9.47273 17822 ft 386 kts 122°
2026-05-07 19:27 49.58512 9.50823 18367 ft 390 kts 122°
2026-05-07 19:27 49.57110 9.54357 18865 ft 393 kts 122°
2026-05-07 19:27 49.55676 9.57975 19381 ft 396 kts 122°
2026-05-07 19:27 49.54237 9.61615 19897 ft 399 kts 122°
2026-05-07 19:28 49.52791 9.65283 20400 ft 402 kts 122°
2026-05-07 19:28 49.51338 9.68979 20906 ft 405 kts 122°
2026-05-07 19:28 49.49869 9.72711 21392 ft 408 kts 122°
2026-05-07 19:28 49.48390 9.76450 21890 ft 410 kts 122°
2026-05-07 19:29 49.46914 9.80173 22371 ft 413 kts 122°
2026-05-07 19:29 49.45413 9.83955 22844 ft 416 kts 122°
2026-05-07 19:29 49.43898 9.87766 23305 ft 419 kts 122°
2026-05-07 19:29 49.42372 9.91602 23728 ft 422 kts 122°
2026-05-07 19:30 49.40838 9.95454 24114 ft 424 kts 122°
2026-05-07 19:30 49.39293 9.99331 24499 ft 427 kts 122°
2026-05-07 19:30 49.37736 10.03225 24882 ft 429 kts 122°
2026-05-07 19:30 49.36168 10.07137 25260 ft 431 kts 122°
2026-05-07 19:31 49.34592 10.11061 25632 ft 433 kts 122°
2026-05-07 19:31 49.33009 10.15003 26005 ft 435 kts 122°
2026-05-07 19:31 49.31417 10.18965 26398 ft 437 kts 122°
2026-05-07 19:31 49.29818 10.22941 26755 ft 439 kts 122°
2026-05-07 19:32 49.28208 10.26939 27077 ft 442 kts 123°
2026-05-07 19:32 49.26605 10.30906 27408 ft 445 kts 123°
2026-05-07 19:32 49.24972 10.34935 27760 ft 447 kts 123°
2026-05-07 19:32 49.23152 10.38791 28104 ft 447 kts 132°
2026-05-07 19:33 49.20992 10.42225 28463 ft 448 kts 137°
2026-05-07 19:33 49.18750 10.45544 28799 ft 450 kts 137°
2026-05-07 19:33 49.16491 10.48884 29137 ft 452 kts 137°
2026-05-07 19:33 49.14223 10.52238 29462 ft 454 kts 137°
2026-05-07 19:34 49.11955 10.55601 29770 ft 456 kts 137°
2026-05-07 19:34 49.09702 10.58946 30065 ft 458 kts 137°
2026-05-07 19:34 49.07412 10.62345 30331 ft 460 kts 137°
2026-05-07 19:34 49.05119 10.65745 30582 ft 461 kts 137°
2026-05-07 19:35 49.02807 10.69157 30810 ft 463 kts 137°
2026-05-07 19:35 49.00478 10.72579 31012 ft 466 kts 137°
2026-05-07 19:35 48.95864 10.79353 31106 ft 451 kts 138°
2026-05-07 19:36 48.91397 10.85914 31104 ft 446 kts 138°
2026-05-07 19:36 48.86908 10.92483 31090 ft 446 kts 138°
2026-05-07 19:37 48.82461 10.98972 31084 ft 446 kts 138°
2026-05-07 19:37 48.77991 11.05477 31084 ft 445 kts 138°
2026-05-07 19:38 48.73517 11.11962 31067 ft 445 kts 138°
2026-05-07 19:38 48.69026 11.18443 31068 ft 446 kts 138°
2026-05-07 19:39 48.64961 11.25520 31067 ft 447 kts 123°
2026-05-07 19:39 48.63510 11.29589 31051 ft 433 kts 114°
2026-05-07 19:39 48.62798 11.32363 31089 ft 423 kts 109°
2026-05-07 19:40 48.61600 11.37908 31079 ft 407 kts 109°
2026-05-07 19:40 48.60734 11.41891 31079 ft 393 kts 109°
2026-05-07 19:40 48.59101 11.49632 30897 ft 382 kts 108°
2026-05-07 19:41 48.58314 11.53443 30547 ft 378 kts 108°
2026-05-07 19:41 48.57532 11.57213 30208 ft 375 kts 108°
2026-05-07 19:41 48.56747 11.60948 29816 ft 371 kts 108°
2026-05-07 19:41 48.55963 11.64653 29405 ft 368 kts 108°
2026-05-07 19:42 48.55195 11.68276 29006 ft 366 kts 108°
2026-05-07 19:42 48.54423 11.71917 28603 ft 363 kts 108°
2026-05-07 19:42 48.53654 11.75532 28214 ft 361 kts 108°
2026-05-07 19:42 48.52882 11.79135 27798 ft 359 kts 108°
2026-05-07 19:43 48.52111 11.82703 27407 ft 357 kts 108°
2026-05-07 19:43 48.51601 11.85061 27150 ft 355 kts 108°
2026-05-07 19:43 48.50831 11.88628 26770 ft 353 kts 108°
2026-05-07 19:43 48.50069 11.92147 26398 ft 351 kts 108°
2026-05-07 19:44 48.49323 11.95584 26040 ft 349 kts 108°
2026-05-07 19:44 48.48572 11.99047 25678 ft 347 kts 108°
2026-05-07 19:44 48.47823 12.02493 25326 ft 345 kts 108°